Showing default

ENVISAT, 27386

Orbit data source: Space-Track

ENVISAT, 27386 is a payload satellite owned by ESA (ESA) in SSO that was launched on Fri, 01 Mar 2002 UTC via an ARIANE 5G launch vehicle from the French Guiana (FRGUI). Payload-class satellites include a variety of spacecraft equipped with specific instruments for various scientific and technological missions. These include communications satellites like Starlink; space stations such as the ISS; scientific satellites like the Hubble; Earth observation satellites from companies like Planet Labs, Umbra, and HawkEye 360; GPS; miniature CubeSats for education and research; and military/defense satellites.

Loading next visibility...
Identifier
27386, 2002-009A
Orbit
SSO
Country
Flag of ESAESA
Related business
Manufacturer
Astrium
Mission
Non-operational Civil Radar Imaging
Bus & Motor
SPOT/PPF, AOCS
Mass
8,211 kg wet, 7,911 kg dry
Launch date (UTC)
2002-03-01 (24 years ago)
Launch vehicle
ARIANE 5G
Launch site
French Guiana (FRGUI)
Object type
Payload
Rocket body
Debris
Shape & HBR
Box + 1 Pan, 13.0 m
Radar Cross Section
74.390 m², Large (>1 m²)

Expand to show TLE details & history
Last TLE update: 17 hours ago

TLE from 17 hours ago
0 ENVISAT
1 27386U 02009A   26207.34214169  .00000091  00000-0  43196-4 0  9991
2 27386  98.3854 157.7917 0001282  82.1480  68.7545 14.39072954279117
Epoch: 2026-07-26T08:12Z
TLE epoch observation values (Epoch: 2026-07-26T08:12:41.042Z)
Latitude
28.79064°
Longitude
-84.79919°
Altitude
764.819 km
Speed
7.475 km/s
True Right ascension
22h 49m 39s
True Declination
28° 38' 45"
Sunlit
Object was in full shadow at epoch
Visualization orbit readout
Latitude
Unknown
Longitude
Unknown
Altitude
Unknown
Speed
Unknown
Apparent Right ascension
Unknown
Apparent Declination
Unknown
Sunlit
N/A
Visualization observer readout
Local Sidereal Time
14:41:10
Azimuth
Unknown
Elevation
Unknown
Doppler factor
Unknown
Orbital elements
Apogee altitude
759.596 km
Perigee altitude
757.766 km
Semi-major axis
7,136.818 km
Eccentricity
0.00013
Inclination
98.3854°
RAAN
157.7917°
Arg. of periapsis
82.148°
True anomaly
68.76819°
Mean anomaly
68.7545°
Eccentric anomaly
68.76135°
Mean motion
3.59987 °/min
Orbital period
100 mins
BSTAR
0.000043196
Loading maneuver chart data...
Computing Atmospheric mass density...
Loading historical data...
Loading historical data...
Loading historical data...
Loading historical data...
Loading historical data...
Loading historical data...
Loading historical data...
Other satellites on launch #9 in the year 2002 (2002-03-01 UTC)

Documentation

Showing up to 5 results
|